STARLINK-4329 (53087 NORAD) Tracking and Keplerian Element Data

This shows tracking and keplerian element data for the satellite.

Feedback or suggestion? Click here.




ElementValue
Catalog53087
NameSTARLINK-4329
Epoch Orbit1241
Epoch Day269.38185557
Epoch Year2022
RAAN89.243
Inclination97.6574
Eccentricity0.0002389
Argument of Perigee42.7697
Mean Anonmoly317.3713
Mean Motion15.01266756
Decay Rate9.6E-07
L11 53087U 22077AW 22269.38185557 .00000096 00000+0 12087-4 0 9990
L22 53087 97.6574 89.2430 0002389 42.7697 317.3713 15.01266756 12418

Live tracking and technical data element details for STARLINK-4329 (NORAD 53087). STARLINK-4329 can be tracked NOW for your location showing map with azimuth and elevation plus other details from your city location.

Track the satellite on the map from your city or location and see movement details for azimuth, elevation, latitude, longitude, range, height, and movement on the map or in text.







IsCatalogInMostPopularTable: catalog: 53087, numindb: 11
Update: records affected: 1



GetName: 53087 STARLINK-4329

Hit Count: updated at: Wed, 05 Oct 2022 08:42:09 GMT